Flag for France Weather past 2 weeks in Villeurbanne, France

Now
91 °F

Sunny.


Feels Like: 89 °F
Forecast: 73 / 98 °F
Wind: 20 mph from South

Location: Lyon / Bron

Current Time: Jul 1, 2015 at 2:47:27 PM

Latest Report: Jul 1, 2015 at 2:00 PM


Visibility: 10 mi

Pressure: 30.04 "Hg

Humidity: 30%

Dew point: 55 °F

Location of VilleurbanneLocation

Historic Weather in Villeurbanne — Graph

°F

Villeurbanne temperature yesterday

Maximum temperature yesterday: 93 °F (at 4:00 PM)
Minimum temperature yesterday: 64 °F (at 5:00 AM)
Average temperature yesterday: 80 °F

Past Weeks' High & Low Weather Summary

 TemperatureHumidityPressure
High93 °F (Jun 30, 4:00 PM)88% (Jun 19, 2:30 AM)30.21 "Hg (Jun 19, 2:30 AM)
Low55 °F (Jun 21, 5:30 AM)19% (Jun 28, 6:00 PM)29.83 "Hg (Jun 22, 6:30 PM)
Average71 °F52%30.10 "Hg
* Reported Jun 16 1:00 PM — Jul 1 1:30 PM, Villeurbanne, Weather by CustomWeather, © 2015

Note: Actual official high and low records may vary slightly from our data, if they occured in-between our weather recording intervals... More about our weather records

Advertising

Villeurbanne weather history for previous 24 hours

 ConditionsComfort  
Time TempWeatherWind HumidityBarometerVisibility
1:30 PM
Wed, Jul 1
91 °FSunny.21 mph30%30.04 "Hg10 mi
1:00 PM90 °FSunny.21 mph29%30.04 "Hg10 mi
12:30 PM90 °FPassing clouds.18 mph29%30.07 "HgN/A
12:00 PM88 °FPassing clouds.20 mph31%30.07 "HgN/A
11:30 AM88 °FSunny.22 mph33%30.07 "Hg10 mi
11:00 AM86 °FPassing clouds.18 mph33%30.07 "HgN/A
10:30 AM84 °FSunny.18 mph37%30.07 "Hg10 mi
10:00 AM82 °FSunny.20 mph40%30.07 "Hg10 mi
9:30 AM82 °FPassing clouds.15 mph42%30.07 "HgN/A
9:00 AM81 °FPassing clouds.14 mph45%30.07 "HgN/A
8:30 AM79 °FPassing clouds.9 mph48%30.07 "HgN/A
8:00 AM77 °FPassing clouds.6 mph51%30.07 "HgN/A
7:30 AM75 °FPassing clouds.5 mph50%30.04 "HgN/A
7:00 AM73 °FSunny.5 mph53%30.04 "Hg10 mi
6:30 AM73 °FClear.2 mph50%30.04 "Hg10 mi
6:00 AM73 °FClear.6 mph50%30.04 "Hg10 mi
5:30 AM73 °FPassing clouds.7 mph50%30.04 "HgN/A
5:00 AM75 °FPassing clouds.7 mph50%30.04 "HgN/A
4:30 AM75 °FClear.7 mph50%30.04 "Hg10 mi
4:00 AM75 °FClear.8 mph54%30.04 "Hg10 mi
3:30 AM75 °FPassing clouds.7 mph54%30.04 "HgN/A
3:00 AM75 °FClear.9 mph57%30.04 "Hg10 mi
2:30 AM77 °FClear.12 mph54%30.04 "Hg10 mi
2:00 AM77 °FClear.10 mph57%30.04 "Hg10 mi
1:30 AM77 °FClear.12 mph57%30.04 "Hg10 mi
1:00 AM79 °FClear.12 mph54%30.04 "Hg10 mi
12:30 AM79 °FClear.13 mph54%30.04 "Hg10 mi
12:00 AM81 °FPassing clouds.16 mph51%30.01 "HgN/A
11:30 PM
Tue, Jun 30
81 °FClear.16 mph51%30.01 "Hg10 mi
11:00 PM82 °FClear.16 mph48%30.01 "Hg10 mi
10:30 PM84 °FSunny.14 mph45%30.01 "Hg10 mi
10:00 PM84 °FSunny.9 mph45%30.01 "Hg10 mi
9:30 PM86 °FPassing clouds.8 mph43%30.01 "HgN/A
9:00 PM88 °FSunny.8 mph38%30.01 "Hg10 mi
8:30 PM90 °FSunny.8 mph33%30.01 "Hg10 mi
8:00 PM91 °FSunny.9 mph28%30.01 "Hg10 mi
7:00 PM93 °FPassing clouds.9 mph26%30.01 "HgN/A
6:30 PM93 °FPassing clouds.9 mph28%30.01 "HgN/A
6:00 PM93 °FPassing clouds.10 mph32%30.01 "HgN/A
5:00 PM93 °FPassing clouds.8 mph30%30.01 "HgN/A
4:30 PM93 °FPassing clouds.7 mph30%30.01 "HgN/A
4:00 PM93 °FPassing clouds.5 mph30%30.04 "HgN/A
3:00 PM91 °FPassing clouds.5 mph32%30.04 "HgN/A
2:30 PM91 °FSunny.5 mph30%30.04 "Hg10 mi
2:00 PM90 °FPassing clouds.5 mph31%30.07 "HgN/A
Weather by CustomWeather, © 2015

See weather overviewHow to use our weather pages